Time,TemperatureF,DewpointF,PressureIn,WindDirection,WindDirectionDegrees,WindSpeedMPH,WindSpeedGustMPH,Humidity,HourlyPrecipIn,Conditions,Clouds,dailyrainin,SoftwareType,DateUTC
2013-02-11 00:00:00,43.4,34.3,29.65,WSW,256,4.0,6.0,70,0.01,,,0.00,VWS V14.01,2013-02-11 06:00:00,
2013-02-11 00:05:00,43.4,34.3,29.65,West,264,2.0,5.0,70,0.01,,,0.00,VWS V14.01,2013-02-11 06:05:00,
2013-02-11 00:10:00,43.4,34.3,29.65,WSW,242,2.0,3.0,70,0.01,,,0.00,VWS V14.01,2013-02-11 06:10:00,
2013-02-11 00:15:00,43.3,34.9,29.65,WSW,237,1.0,3.0,72,0.01,,,0.00,VWS V14.01,2013-02-11 06:15:00,
2013-02-11 00:20:00,43.0,35.0,29.66,WSW,255,4.0,5.0,73,0.01,,,0.00,VWS V14.01,2013-02-11 06:20:00,
2013-02-11 00:25:00,42.9,34.8,29.66,SW,227,2.0,3.0,73,0.00,,,0.00,VWS V14.01,2013-02-11 06:25:00,
2013-02-11 00:30:00,42.8,34.8,29.66,SW,236,2.0,2.0,73,0.00,,,0.00,VWS V14.01,2013-02-11 06:30:00,
2013-02-11 00:35:00,42.7,35.0,29.66,SW,233,3.0,5.0,74,0.00,,,0.00,VWS V14.01,2013-02-11 06:35:00,
2013-02-11 00:40:00,42.4,34.0,29.66,West,270,4.0,7.0,72,0.00,,,0.00,VWS V14.01,2013-02-11 06:40:00,
2013-02-11 00:45:00,42.2,33.8,29.67,SW,227,5.0,7.0,72,0.00,,,0.00,VWS V14.01,2013-02-11 06:45:00,
2013-02-11 00:50:00,42.0,33.3,29.67,WSW,242,5.0,8.0,71,0.00,,,0.00,VWS V14.01,2013-02-11 06:50:00,
2013-02-11 00:55:00,41.6,33.3,29.67,SW,224,3.0,4.0,72,0.00,,,0.00,VWS V14.01,2013-02-11 06:55:00,
2013-02-11 01:00:00,41.4,33.1,29.67,SW,233,3.0,4.0,72,0.00,,,0.00,VWS V14.01,2013-02-11 07:00:00,
2013-02-11 01:05:00,41.2,32.9,29.67,WSW,257,2.0,5.0,72,0.00,,,0.00,VWS V14.01,2013-02-11 07:05:00,
2013-02-11 01:10:00,41.0,33.0,29.67,SSW,209,2.0,3.0,73,0.00,,,0.00,VWS V14.01,2013-02-11 07:10:00,
2013-02-11 01:15:00,40.8,33.2,29.68,WSW,256,2.0,7.0,74,0.00,,,0.00,VWS V14.01,2013-02-11 07:15:00,
2013-02-11 01:20:00,40.7,32.7,29.68,SW,219,2.0,5.0,73,0.00,,,0.00,VWS V14.01,2013-02-11 07:20:00,
2013-02-11 01:25:00,40.7,33.1,29.68,SSE,165,4.0,7.0,74,0.00,,,0.00,VWS V14.01,2013-02-11 07:25:00,
2013-02-11 01:30:00,40.5,32.5,29.68,SW,223,3.0,5.0,73,0.00,,,0.00,VWS V14.01,2013-02-11 07:30:00,
2013-02-11 01:35:00,40.4,32.4,29.69,WSW,250,3.0,5.0,73,0.00,,,0.00,VWS V14.01,2013-02-11 07:35:00,
2013-02-11 01:40:00,40.2,32.2,29.69,WSW,247,6.0,7.0,73,0.00,,,0.00,VWS V14.01,2013-02-11 07:40:00,
2013-02-11 01:45:00,40.1,32.2,29.69,WSW,257,5.0,6.0,73,0.00,,,0.00,VWS V14.01,2013-02-11 07:45:00,
2013-02-11 01:50:00,40.0,31.7,29.70,WSW,258,5.0,9.0,72,0.00,,,0.00,VWS V14.01,2013-02-11 07:50:00,
2013-02-11 01:55:00,39.9,31.6,29.69,WSW,250,6.0,7.0,72,0.00,,,0.00,VWS V14.01,2013-02-11 07:55:00,
2013-02-11 02:00:00,39.7,31.4,29.70,SSW,209,4.0,6.0,72,0.00,,,0.00,VWS V14.01,2013-02-11 08:00:00,
2013-02-11 02:05:00,39.6,31.3,29.71,WSW,258,6.0,10.0,72,0.00,,,0.00,VWS V14.01,2013-02-11 08:05:00,
2013-02-11 02:10:00,39.5,31.6,29.71,WSW,241,6.0,8.0,73,0.00,,,0.00,VWS V14.01,2013-02-11 08:10:00,
2013-02-11 02:15:00,39.3,31.0,29.71,SW,221,3.0,3.0,72,0.00,,,0.00,VWS V14.01,2013-02-11 08:15:00,
2013-02-11 02:20:00,39.2,32.6,29.71,SW,221,5.0,6.0,77,0.00,,,0.00,VWS V14.01,2013-02-11 08:20:00,
2013-02-11 02:25:00,39.0,31.1,29.72,SW,219,6.0,7.0,73,0.00,,,0.00,VWS V14.01,2013-02-11 08:25:00,
2013-02-11 02:30:00,38.7,30.5,29.72,WSW,237,9.0,9.0,72,0.00,,,0.00,VWS V14.01,2013-02-11 08:30:00,
2013-02-11 02:35:00,38.6,29.7,29.72,SW,217,4.0,8.0,70,0.00,,,0.00,VWS V14.01,2013-02-11 08:35:00,
2013-02-11 02:40:00,38.5,29.2,29.72,WSW,243,5.0,6.0,69,0.00,,,0.00,VWS V14.01,2013-02-11 08:40:00,
2013-02-11 02:45:00,38.4,29.1,29.72,SW,235,5.0,5.0,69,0.00,,,0.00,VWS V14.01,2013-02-11 08:45:00,
2013-02-11 02:50:00,38.3,29.4,29.72,WSW,250,4.0,5.0,70,0.00,,,0.00,VWS V14.01,2013-02-11 08:50:00,
2013-02-11 02:55:00,38.1,29.2,29.73,WSW,248,6.0,6.0,70,0.00,,,0.00,VWS V14.01,2013-02-11 08:55:00,
2013-02-11 03:00:00,38.0,29.1,29.72,WSW,242,6.0,7.0,70,0.00,,,0.00,VWS V14.01,2013-02-11 09:00:00,
2013-02-11 03:05:00,37.8,29.3,29.73,SW,232,2.0,4.0,71,0.00,,,0.00,VWS V14.01,2013-02-11 09:05:00,
2013-02-11 03:10:00,37.8,29.9,29.73,SSW,203,1.0,4.0,73,0.00,,,0.00,VWS V14.01,2013-02-11 09:10:00,
2013-02-11 03:15:00,37.7,29.8,29.73,WSW,246,3.0,3.0,73,0.00,,,0.00,VWS V14.01,2013-02-11 09:15:00,
2013-02-11 03:20:00,37.5,29.3,29.73,SW,220,1.0,2.0,72,0.00,,,0.00,VWS V14.01,2013-02-11 09:20:00,
2013-02-11 03:25:00,37.3,29.1,29.74,WSW,237,2.0,5.0,72,0.00,,,0.00,VWS V14.01,2013-02-11 09:25:00,
2013-02-11 03:30:00,37.2,29.0,29.73,SW,229,2.0,3.0,72,0.00,,,0.00,VWS V14.01,2013-02-11 09:30:00,
2013-02-11 03:35:00,37.1,28.9,29.73,WSW,254,5.0,5.0,72,0.00,,,0.00,VWS V14.01,2013-02-11 09:35:00,
2013-02-11 03:40:00,37.0,29.2,29.74,West,275,2.0,5.0,73,0.00,,,0.00,VWS V14.01,2013-02-11 09:40:00,
2013-02-11 03:45:00,37.0,28.5,29.74,SW,218,5.0,7.0,71,0.00,,,0.00,VWS V14.01,2013-02-11 09:45:00,
2013-02-11 03:50:00,37.0,28.1,29.74,West,262,6.0,8.0,70,0.00,,,0.00,VWS V14.01,2013-02-11 09:50:00,
2013-02-11 03:55:00,37.0,28.5,29.74,West,262,4.0,4.0,71,0.00,,,0.00,VWS V14.01,2013-02-11 09:55:00,
2013-02-11 04:00:00,36.9,28.0,29.75,SW,236,6.0,6.0,70,0.00,,,0.00,VWS V14.01,2013-02-11 10:00:00,
2013-02-11 04:05:00,36.8,28.0,29.75,WSW,244,4.0,4.0,70,0.00,,,0.00,VWS V14.01,2013-02-11 10:05:00,
2013-02-11 04:10:00,36.8,28.3,29.75,WSW,257,3.0,6.0,71,0.00,,,0.00,VWS V14.01,2013-02-11 10:10:00,
2013-02-11 04:15:00,36.7,28.2,29.75,SW,219,1.0,2.0,71,0.00,,,0.00,VWS V14.01,2013-02-11 10:15:00,
2013-02-11 04:20:00,36.6,28.1,29.75,WSW,238,3.0,3.0,71,0.00,,,0.00,VWS V14.01,2013-02-11 10:20:00,
2013-02-11 04:25:00,36.6,28.4,29.75,SSW,201,1.0,1.0,72,0.00,,,0.00,VWS V14.01,2013-02-11 10:25:00,
2013-02-11 04:30:00,36.6,28.1,29.75,SSW,205,1.0,3.0,71,0.00,,,0.00,VWS V14.01,2013-02-11 10:30:00,
2013-02-11 04:35:00,36.6,28.4,29.75,SW,228,1.0,4.0,72,0.00,,,0.00,VWS V14.01,2013-02-11 10:35:00,
2013-02-11 04:40:00,36.6,28.4,29.75,SW,222,3.0,4.0,72,0.00,,,0.00,VWS V14.01,2013-02-11 10:40:00,
2013-02-11 04:45:00,36.6,28.8,29.75,SW,229,0.0,1.0,73,0.00,,,0.00,VWS V14.01,2013-02-11 10:45:00,
2013-02-11 04:50:00,36.5,28.4,29.76,SW,226,3.0,4.0,72,0.00,,,0.00,VWS V14.01,2013-02-11 10:50:00,
2013-02-11 04:55:00,36.6,28.4,29.76,SW,226,3.0,5.0,72,0.00,,,0.00,VWS V14.01,2013-02-11 10:55:00,
2013-02-11 05:00:00,36.6,28.1,29.76,WSW,237,3.0,6.0,71,0.00,,,0.00,VWS V14.01,2013-02-11 11:00:00,
2013-02-11 05:05:00,36.6,27.8,29.77,SW,232,3.0,4.0,70,0.00,,,0.00,VWS V14.01,2013-02-11 11:05:00,
2013-02-11 05:10:00,36.5,27.7,29.77,SSW,193,0.0,3.0,70,0.00,,,0.00,VWS V14.01,2013-02-11 11:10:00,
2013-02-11 05:15:00,36.4,27.2,29.77,WSW,255,3.0,6.0,69,0.00,,,0.00,VWS V14.01,2013-02-11 11:15:00,
2013-02-11 05:20:00,36.3,27.1,29.77,West,270,2.0,4.0,69,0.00,,,0.00,VWS V14.01,2013-02-11 11:20:00,
2013-02-11 05:25:00,36.2,26.7,29.78,SSW,205,3.0,3.0,68,0.00,,,0.00,VWS V14.01,2013-02-11 11:25:00,
2013-02-11 05:30:00,36.0,26.5,29.78,SW,231,3.0,3.0,68,0.00,,,0.00,VWS V14.01,2013-02-11 11:30:00,
2013-02-11 05:35:00,36.0,26.8,29.79,SSW,202,2.0,2.0,69,0.00,,,0.00,VWS V14.01,2013-02-11 11:35:00,
2013-02-11 05:40:00,35.9,26.7,29.79,SSW,207,3.0,4.0,69,0.00,,,0.00,VWS V14.01,2013-02-11 11:40:00,
2013-02-11 05:45:00,35.9,26.7,29.79,SW,224,2.0,5.0,69,0.00,,,0.00,VWS V14.01,2013-02-11 11:45:00,
2013-02-11 05:50:00,35.9,26.7,29.79,SW,223,2.0,2.0,69,0.00,,,0.00,VWS V14.01,2013-02-11 11:50:00,
2013-02-11 05:55:00,35.8,26.6,29.80,SW,224,2.0,2.0,69,0.00,,,0.00,VWS V14.01,2013-02-11 11:55:00,
2013-02-11 06:00:00,35.7,26.9,29.80,SSW,203,3.0,4.0,70,0.00,,,0.00,VWS V14.01,2013-02-11 12:00:00,
2013-02-11 06:05:00,35.6,26.8,29.80,SW,223,2.0,2.0,70,0.00,,,0.00,VWS V14.01,2013-02-11 12:05:00,
2013-02-11 06:10:00,35.6,27.1,29.80,SW,226,3.0,3.0,71,0.00,,,0.00,VWS V14.01,2013-02-11 12:10:00,
2013-02-11 06:15:00,35.6,26.8,29.80,SW,227,4.0,7.0,70,0.00,,,0.00,VWS V14.01,2013-02-11 12:15:00,
2013-02-11 06:20:00,35.6,26.5,29.80,SSW,209,2.0,3.0,69,0.00,,,0.00,VWS V14.01,2013-02-11 12:20:00,
2013-02-11 06:25:00,35.6,26.5,29.80,WSW,238,2.0,2.0,69,0.00,,,0.00,VWS V14.01,2013-02-11 12:25:00,
2013-02-11 06:30:00,35.5,26.4,29.81,SSW,211,2.0,2.0,69,0.00,,,0.00,VWS V14.01,2013-02-11 12:30:00,
2013-02-11 06:35:00,35.5,26.4,29.81,SW,233,3.0,4.0,69,0.00,,,0.00,VWS V14.01,2013-02-11 12:35:00,
2013-02-11 06:40:00,35.5,26.4,29.81,SW,228,3.0,3.0,69,0.00,,,0.00,VWS V14.01,2013-02-11 12:40:00,
2013-02-11 06:45:00,35.4,26.3,29.81,WSW,239,3.0,3.0,69,0.00,,,0.00,VWS V14.01,2013-02-11 12:45:00,
2013-02-11 06:50:00,35.4,26.3,29.82,SSW,211,2.0,3.0,69,0.00,,,0.00,VWS V14.01,2013-02-11 12:50:00,
2013-02-11 06:55:00,35.3,26.5,29.82,SW,217,4.0,4.0,70,0.00,,,0.00,VWS V14.01,2013-02-11 12:55:00,
2013-02-11 07:00:00,35.4,26.3,29.82,SW,221,4.0,4.0,69,0.00,,,0.00,VWS V14.01,2013-02-11 13:00:00,
2013-02-11 07:04:00,35.4,26.6,29.82,WSW,249,4.0,5.0,70,0.00,,,0.00,VWS V14.01,2013-02-11 13:04:00,
2013-02-11 07:09:00,35.3,26.5,29.83,SSW,209,2.0,2.0,70,0.00,,,0.00,VWS V14.01,2013-02-11 13:09:00,
2013-02-11 07:14:00,35.3,26.9,29.83,SW,217,1.0,1.0,71,0.00,,,0.00,VWS V14.01,2013-02-11 13:14:00,
2013-02-11 07:19:00,35.3,27.2,29.83,SW,219,1.0,2.0,72,0.00,,,0.00,VWS V14.01,2013-02-11 13:19:00,
2013-02-11 07:25:00,35.3,26.9,29.83,WSW,250,2.0,2.0,71,0.00,,,0.00,VWS V14.01,2013-02-11 13:25:00,
2013-02-11 07:30:00,35.3,26.9,29.83,SW,225,3.0,3.0,71,0.00,,,0.00,VWS V14.01,2013-02-11 13:30:00,
2013-02-11 07:35:00,35.3,26.5,29.84,SW,235,3.0,4.0,70,0.00,,,0.00,VWS V14.01,2013-02-11 13:35:00,
2013-02-11 07:40:00,35.3,26.5,29.84,SW,217,3.0,3.0,70,0.00,,,0.00,VWS V14.01,2013-02-11 13:40:00,
2013-02-11 07:45:00,35.3,26.5,29.84,SW,226,2.0,5.0,70,0.00,,,0.00,VWS V14.01,2013-02-11 13:45:00,
2013-02-11 07:50:00,35.3,26.5,29.85,West,273,2.0,2.0,70,0.00,,,0.00,VWS V14.01,2013-02-11 13:50:00,
2013-02-11 07:55:00,35.3,26.5,29.85,SW,227,3.0,3.0,70,0.00,,,0.00,VWS V14.01,2013-02-11 13:55:00,
2013-02-11 08:00:00,35.3,26.9,29.85,SSW,213,4.0,4.0,71,0.00,,,0.00,VWS V14.01,2013-02-11 14:00:00,
2013-02-11 08:05:00,35.3,26.9,29.86,SSW,213,2.0,3.0,71,0.00,,,0.00,VWS V14.01,2013-02-11 14:05:00,
2013-02-11 08:10:00,35.3,26.5,29.86,West,261,2.0,4.0,70,0.00,,,0.00,VWS V14.01,2013-02-11 14:10:00,
2013-02-11 08:15:00,35.3,26.5,29.87,SW,215,0.0,1.0,70,0.00,,,0.00,VWS V14.01,2013-02-11 14:15:00,
2013-02-11 08:20:00,35.3,26.5,29.87,WSW,257,2.0,3.0,70,0.00,,,0.00,VWS V14.01,2013-02-11 14:20:00,
2013-02-11 08:25:00,35.2,26.4,29.88,SW,223,3.0,3.0,70,0.00,,,0.00,VWS V14.01,2013-02-11 14:25:00,
2013-02-11 08:30:00,35.2,26.8,29.87,SW,219,1.0,1.0,71,0.00,,,0.00,VWS V14.01,2013-02-11 14:30:00,
2013-02-11 08:35:00,35.2,26.8,29.87,WSW,248,4.0,7.0,71,0.00,,,0.00,VWS V14.01,2013-02-11 14:35:00,
2013-02-11 08:40:00,35.2,26.8,29.88,SW,216,2.0,4.0,71,0.00,,,0.00,VWS V14.01,2013-02-11 14:40:00,
2013-02-11 08:45:00,35.3,26.9,29.88,SW,232,2.0,2.0,71,0.00,,,0.00,VWS V14.01,2013-02-11 14:45:00,
2013-02-11 08:50:00,35.3,26.9,29.89,SW,230,1.0,2.0,71,0.00,,,0.00,VWS V14.01,2013-02-11 14:50:00,
2013-02-11 08:55:00,35.3,27.2,29.89,WSW,238,2.0,2.0,72,0.00,,,0.00,VWS V14.01,2013-02-11 14:55:00,
2013-02-11 09:00:00,35.3,26.9,29.89,SW,214,2.0,2.0,71,0.00,,,0.00,VWS V14.01,2013-02-11 15:00:00,
2013-02-11 09:05:00,35.3,26.9,29.89,SW,225,2.0,2.0,71,0.00,,,0.00,VWS V14.01,2013-02-11 15:05:00,
2013-02-11 09:10:00,35.3,26.5,29.89,West,268,3.0,3.0,70,0.00,,,0.00,VWS V14.01,2013-02-11 15:10:00,
2013-02-11 09:15:00,35.3,26.2,29.90,SSW,197,3.0,5.0,69,0.00,,,0.00,VWS V14.01,2013-02-11 15:15:00,
2013-02-11 09:20:00,35.3,26.2,29.90,WSW,244,1.0,3.0,69,0.00,,,0.00,VWS V14.01,2013-02-11 15:20:00,
2013-02-11 09:25:00,35.3,25.8,29.90,WSW,248,4.0,6.0,68,0.00,,,0.00,VWS V14.01,2013-02-11 15:25:00,
2013-02-11 09:30:00,35.3,26.2,29.90,WSW,242,2.0,2.0,69,0.00,,,0.00,VWS V14.01,2013-02-11 15:30:00,
2013-02-11 09:35:00,35.3,26.2,29.91,SSW,200,4.0,4.0,69,0.00,,,0.00,VWS V14.01,2013-02-11 15:35:00,
2013-02-11 09:40:00,35.3,26.5,29.91,SW,225,2.0,2.0,70,0.00,,,0.00,VWS V14.01,2013-02-11 15:40:00,
2013-02-11 09:45:00,35.3,26.5,29.91,SW,223,2.0,2.0,70,0.00,,,0.00,VWS V14.01,2013-02-11 15:45:00,
2013-02-11 09:50:00,35.4,27.0,29.91,SW,228,0.0,2.0,71,0.00,,,0.00,VWS V14.01,2013-02-11 15:50:00,
2013-02-11 09:55:00,35.4,26.6,29.91,SSW,205,1.0,2.0,70,0.00,,,0.00,VWS V14.01,2013-02-11 15:55:00,
2013-02-11 10:00:00,35.5,26.4,29.92,SW,222,3.0,3.0,69,0.00,,,0.00,VWS V14.01,2013-02-11 16:00:00,
2013-02-11 10:05:00,35.5,26.4,29.92,WSW,247,2.0,3.0,69,0.00,,,0.00,VWS V14.01,2013-02-11 16:05:00,
2013-02-11 10:10:00,35.5,26.4,29.92,SW,227,1.0,1.0,69,0.00,,,0.00,VWS V14.01,2013-02-11 16:10:00,
2013-02-11 10:14:00,35.5,26.4,29.93,NE,42,3.0,3.0,69,0.00,,,0.00,VWS V14.01,2013-02-11 16:14:00,
2013-02-11 10:19:00,35.5,26.4,29.93,SSW,210,1.0,2.0,69,0.00,,,0.00,VWS V14.01,2013-02-11 16:19:00,
2013-02-11 10:24:00,35.5,26.4,29.93,SW,221,2.0,2.0,69,0.00,,,0.00,VWS V14.01,2013-02-11 16:24:00,
2013-02-11 10:29:00,35.5,26.4,29.94,SW,230,2.0,2.0,69,0.00,,,0.00,VWS V14.01,2013-02-11 16:29:00,
2013-02-11 10:34:00,35.4,26.3,29.94,SSW,198,2.0,2.0,69,0.00,,,0.00,VWS V14.01,2013-02-11 16:34:00,
2013-02-11 10:39:00,35.6,26.8,29.94,SW,215,0.0,0.0,70,0.00,,,0.00,VWS V14.01,2013-02-11 16:39:00,
2013-02-11 10:44:00,35.9,27.1,29.94,SW,222,3.0,3.0,70,0.00,,,0.00,VWS V14.01,2013-02-11 16:44:00,
2013-02-11 10:49:00,36.0,27.2,29.94,SSW,194,5.0,7.0,70,0.00,,,0.00,VWS V14.01,2013-02-11 16:49:00,
2013-02-11 10:54:00,36.2,27.4,29.95,WSW,247,2.0,2.0,70,0.00,,,0.00,VWS V14.01,2013-02-11 16:54:00,
2013-02-11 10:59:00,36.4,26.9,29.95,SW,236,2.0,3.0,68,0.00,,,0.00,VWS V14.01,2013-02-11 16:59:00,
2013-02-11 11:04:00,36.4,27.2,29.95,SW,223,3.0,3.0,69,0.00,,,0.00,VWS V14.01,2013-02-11 17:04:00,
2013-02-11 11:09:00,36.5,27.0,29.95,SW,232,3.0,3.0,68,0.00,,,0.00,VWS V14.01,2013-02-11 17:09:00,
2013-02-11 11:14:00,36.2,27.0,29.95,WSW,258,1.0,1.0,69,0.00,,,0.00,VWS V14.01,2013-02-11 17:14:00,
2013-02-11 11:19:00,36.2,27.4,29.95,SSW,207,0.0,4.0,70,0.00,,,0.00,VWS V14.01,2013-02-11 17:19:00,
2013-02-11 11:24:00,36.4,27.6,29.95,SW,226,3.0,3.0,70,0.00,,,0.00,VWS V14.01,2013-02-11 17:24:00,
2013-02-11 11:29:00,36.6,27.4,29.94,WSW,240,2.0,6.0,69,0.00,,,0.00,VWS V14.01,2013-02-11 17:29:00,
2013-02-11 11:34:00,37.1,28.2,29.95,SW,223,4.0,5.0,70,0.00,,,0.00,VWS V14.01,2013-02-11 17:34:00,
2013-02-11 11:39:00,37.2,27.3,29.95,SW,219,4.0,5.0,67,0.00,,,0.00,VWS V14.01,2013-02-11 17:39:00,
2013-02-11 11:45:00,37.3,27.7,29.95,SW,219,1.0,5.0,68,0.00,,,0.00,VWS V14.01,2013-02-11 17:45:00,
2013-02-11 11:50:00,37.5,27.5,29.96,SW,236,5.0,6.0,67,0.00,,,0.00,VWS V14.01,2013-02-11 17:50:00,
2013-02-11 11:55:00,37.4,26.7,29.96,SW,234,3.0,3.0,65,0.00,,,0.00,VWS V14.01,2013-02-11 17:55:00,
2013-02-11 12:00:00,37.4,26.7,29.96,West,272,2.0,5.0,65,0.00,,,0.00,VWS V14.01,2013-02-11 18:00:00,
2013-02-11 12:05:00,37.5,27.2,29.96,SW,218,4.0,5.0,66,0.00,,,0.00,VWS V14.01,2013-02-11 18:05:00,
2013-02-11 12:10:00,37.6,26.9,29.96,SW,219,2.0,7.0,65,0.00,,,0.00,VWS V14.01,2013-02-11 18:10:00,
2013-02-11 12:15:00,37.5,26.8,29.96,SW,219,1.0,2.0,65,0.00,,,0.00,VWS V14.01,2013-02-11 18:15:00,
2013-02-11 12:20:00,37.6,26.9,29.96,SW,216,2.0,4.0,65,0.00,,,0.00,VWS V14.01,2013-02-11 18:20:00,
2013-02-11 12:25:00,37.7,27.0,29.96,WNW,296,4.0,4.0,65,0.00,,,0.00,VWS V14.01,2013-02-11 18:25:00,
2013-02-11 12:30:00,37.7,27.4,29.96,WSW,237,3.0,4.0,66,0.00,,,0.00,VWS V14.01,2013-02-11 18:30:00,
2013-02-11 12:35:00,37.7,27.4,29.96,West,263,1.0,3.0,66,0.00,,,0.00,VWS V14.01,2013-02-11 18:35:00,
2013-02-11 12:40:00,37.7,27.8,29.96,WNW,286,1.0,4.0,67,0.00,,,0.00,VWS V14.01,2013-02-11 18:40:00,
2013-02-11 12:45:00,37.8,27.8,29.96,WSW,245,2.0,2.0,67,0.00,,,0.00,VWS V14.01,2013-02-11 18:45:00,
2013-02-11 12:50:00,38.0,28.4,29.96,SW,234,0.0,3.0,68,0.00,,,0.00,VWS V14.01,2013-02-11 18:50:00,
2013-02-11 12:55:00,38.3,28.7,29.96,WSW,242,4.0,4.0,68,0.00,,,0.00,VWS V14.01,2013-02-11 18:55:00,
2013-02-11 13:00:00,38.2,27.9,29.96,SW,222,1.0,3.0,66,0.00,,,0.00,VWS V14.01,2013-02-11 19:00:00,
2013-02-11 13:05:00,38.2,28.2,29.96,West,279,2.0,4.0,67,0.00,,,0.00,VWS V14.01,2013-02-11 19:05:00,
2013-02-11 13:10:00,38.3,28.3,29.97,SW,215,1.0,3.0,67,0.00,,,0.00,VWS V14.01,2013-02-11 19:10:00,
2013-02-11 13:15:00,38.4,27.7,29.97,NNE,28,2.0,2.0,65,0.00,,,0.00,VWS V14.01,2013-02-11 19:15:00,
2013-02-11 13:20:00,38.6,28.2,29.96,SW,221,2.0,5.0,66,0.00,,,0.00,VWS V14.01,2013-02-11 19:20:00,
2013-02-11 13:25:00,39.0,28.2,29.96,SW,227,3.0,4.0,65,0.00,,,0.00,VWS V14.01,2013-02-11 19:25:00,
2013-02-11 13:30:00,39.4,28.6,29.97,SW,232,3.0,3.0,65,0.00,,,0.00,VWS V14.01,2013-02-11 19:30:00,
2013-02-11 13:35:00,39.5,28.7,29.96,West,261,1.0,5.0,65,0.00,,,0.00,VWS V14.01,2013-02-11 19:35:00,
2013-02-11 13:40:00,39.2,28.4,29.97,SW,217,1.0,2.0,65,0.00,,,0.00,VWS V14.01,2013-02-11 19:40:00,
2013-02-11 13:45:00,39.3,28.5,29.97,ENE,65,3.0,3.0,65,0.00,,,0.00,VWS V14.01,2013-02-11 19:45:00,
2013-02-11 13:50:00,39.6,29.2,29.97,NW,306,3.0,5.0,66,0.00,,,0.00,VWS V14.01,2013-02-11 19:50:00,
2013-02-11 13:55:00,40.0,29.2,29.97,South,180,0.0,2.0,65,0.00,,,0.00,VWS V14.01,2013-02-11 19:55:00,
2013-02-11 14:00:00,40.2,29.0,29.97,SW,226,2.0,7.0,64,0.00,,,0.00,VWS V14.01,2013-02-11 20:00:00,
2013-02-11 14:05:00,40.3,28.7,29.97,SSW,209,3.0,6.0,63,0.00,,,0.00,VWS V14.01,2013-02-11 20:05:00,
2013-02-11 14:10:00,40.6,29.8,29.97,WSW,248,2.0,4.0,65,0.00,,,0.00,VWS V14.01,2013-02-11 20:10:00,
2013-02-11 14:15:00,40.5,28.9,29.98,WSW,238,2.0,4.0,63,0.00,,,0.00,VWS V14.01,2013-02-11 20:15:00,
2013-02-11 14:20:00,40.3,28.7,29.98,SSW,193,3.0,9.0,63,0.00,,,0.00,VWS V14.01,2013-02-11 20:20:00,
2013-02-11 14:25:00,40.0,28.4,29.98,SW,220,3.0,3.0,63,0.00,,,0.00,VWS V14.01,2013-02-11 20:25:00,
2013-02-11 14:30:00,40.1,28.1,29.98,SW,219,3.0,5.0,62,0.00,,,0.00,VWS V14.01,2013-02-11 20:30:00,
2013-02-11 14:35:00,40.6,29.0,29.98,South,182,0.0,4.0,63,0.00,,,0.00,VWS V14.01,2013-02-11 20:35:00,
2013-02-11 14:40:00,41.0,29.0,29.98,ENE,70,1.0,7.0,62,0.00,,,0.00,VWS V14.01,2013-02-11 20:40:00,
2013-02-11 14:45:00,41.0,28.6,29.99,NE,53,1.0,3.0,61,0.00,,,0.00,VWS V14.01,2013-02-11 20:45:00,
2013-02-11 14:50:00,40.6,28.2,29.99,SW,219,3.0,4.0,61,0.00,,,0.00,VWS V14.01,2013-02-11 20:50:00,
2013-02-11 14:55:00,40.3,28.7,29.99,South,179,3.0,3.0,63,0.00,,,0.00,VWS V14.01,2013-02-11 20:55:00,
2013-02-11 15:00:00,39.9,28.3,30.00,SSW,205,3.0,3.0,63,0.00,,,0.00,VWS V14.01,2013-02-11 21:00:00,
2013-02-11 15:05:00,39.8,28.6,30.00,SW,234,0.0,2.0,64,0.00,,,0.00,VWS V14.01,2013-02-11 21:05:00,
2013-02-11 15:10:00,40.0,29.2,30.00,SSW,204,1.0,3.0,65,0.00,,,0.00,VWS V14.01,2013-02-11 21:10:00,
2013-02-11 15:15:00,40.3,29.1,29.99,SW,224,5.0,5.0,64,0.00,,,0.00,VWS V14.01,2013-02-11 21:15:00,
2013-02-11 15:20:00,40.5,28.9,30.00,SW,215,4.0,5.0,63,0.00,,,0.00,VWS V14.01,2013-02-11 21:20:00,
2013-02-11 15:25:00,40.5,28.9,30.00,WSW,244,2.0,3.0,63,0.00,,,0.00,VWS V14.01,2013-02-11 21:25:00,
2013-02-11 15:30:00,40.4,29.2,30.00,South,183,0.0,4.0,64,0.00,,,0.00,VWS V14.01,2013-02-11 21:30:00,
2013-02-11 15:35:00,40.3,28.7,30.00,SW,225,4.0,4.0,63,0.00,,,0.00,VWS V14.01,2013-02-11 21:35:00,
2013-02-11 15:40:00,40.3,28.7,30.00,SW,221,2.0,4.0,63,0.00,,,0.00,VWS V14.01,2013-02-11 21:40:00,
2013-02-11 15:45:00,40.4,28.8,30.01,ENE,67,4.0,5.0,63,0.00,,,0.00,VWS V14.01,2013-02-11 21:45:00,
2013-02-11 15:50:00,40.4,28.4,30.01,SW,220,1.0,3.0,62,0.00,,,0.00,VWS V14.01,2013-02-11 21:50:00,
2013-02-11 15:55:00,40.3,28.7,30.01,SSW,205,1.0,2.0,63,0.00,,,0.00,VWS V14.01,2013-02-11 21:55:00,
2013-02-11 16:00:00,40.0,28.4,30.01,SW,229,1.0,3.0,63,0.00,,,0.00,VWS V14.01,2013-02-11 22:00:00,
2013-02-11 16:05:00,39.8,28.6,30.01,SW,226,2.0,5.0,64,0.00,,,0.00,VWS V14.01,2013-02-11 22:05:00,
2013-02-11 16:10:00,39.8,29.4,30.02,WSW,244,1.0,1.0,66,0.00,,,0.00,VWS V14.01,2013-02-11 22:10:00,
2013-02-11 16:15:00,39.7,28.9,30.02,NE,51,0.0,2.0,65,0.00,,,0.00,VWS V14.01,2013-02-11 22:15:00,
2013-02-11 16:20:00,39.5,29.1,30.02,NNE,30,1.0,4.0,66,0.00,,,0.00,VWS V14.01,2013-02-11 22:20:00,
2013-02-11 16:25:00,39.3,28.9,30.02,SW,214,1.0,2.0,66,0.00,,,0.00,VWS V14.01,2013-02-11 22:25:00,
2013-02-11 16:30:00,39.2,29.2,30.02,ESE,123,2.0,3.0,67,0.00,,,0.00,VWS V14.01,2013-02-11 22:30:00,
2013-02-11 16:35:00,39.2,29.5,30.03,SW,225,1.0,2.0,68,0.00,,,0.00,VWS V14.01,2013-02-11 22:35:00,
2013-02-11 16:40:00,39.2,29.5,30.03,WSW,246,1.0,6.0,68,0.00,,,0.00,VWS V14.01,2013-02-11 22:40:00,
2013-02-11 16:45:00,39.1,29.5,30.03,WNW,291,1.0,3.0,68,0.00,,,0.00,VWS V14.01,2013-02-11 22:45:00,
2013-02-11 16:50:00,38.9,29.2,30.03,SSW,200,1.0,1.0,68,0.00,,,0.00,VWS V14.01,2013-02-11 22:50:00,
2013-02-11 16:55:00,38.7,29.4,30.04,SW,217,0.0,2.0,69,0.00,,,0.00,VWS V14.01,2013-02-11 22:55:00,
2013-02-11 17:00:00,38.6,29.3,30.04,WSW,237,2.0,2.0,69,0.00,,,0.00,VWS V14.01,2013-02-11 23:00:00,
2013-02-11 17:05:00,38.3,28.7,30.04,NNE,17,1.0,2.0,68,0.00,,,0.00,VWS V14.01,2013-02-11 23:05:00,
2013-02-11 17:10:00,38.1,28.8,30.05,SSW,202,1.0,2.0,69,0.00,,,0.00,VWS V14.01,2013-02-11 23:10:00,
2013-02-11 17:15:00,37.8,28.6,30.05,SSW,204,2.0,4.0,69,0.00,,,0.00,VWS V14.01,2013-02-11 23:15:00,
2013-02-11 17:20:00,37.6,28.4,30.06,WSW,237,1.0,4.0,69,0.00,,,0.00,VWS V14.01,2013-02-11 23:20:00,
2013-02-11 17:25:00,37.4,28.2,30.06,WSW,246,1.0,6.0,69,0.00,,,0.00,VWS V14.01,2013-02-11 23:25:00,
2013-02-11 17:30:00,37.2,28.3,30.06,SSW,198,0.0,1.0,70,0.00,,,0.00,VWS V14.01,2013-02-11 23:30:00,
2013-02-11 17:35:00,37.1,28.6,30.06,NE,53,0.0,1.0,71,0.00,,,0.00,VWS V14.01,2013-02-11 23:35:00,
2013-02-11 17:40:00,36.8,28.6,30.06,NNE,29,0.0,2.0,72,0.00,,,0.00,VWS V14.01,2013-02-11 23:40:00,
2013-02-11 17:45:00,36.5,28.4,30.06,SSE,147,1.0,2.0,72,0.00,,,0.00,VWS V14.01,2013-02-11 23:45:00,
2013-02-11 17:50:00,36.3,28.1,30.06,SSW,196,1.0,3.0,72,0.00,,,0.00,VWS V14.01,2013-02-11 23:50:00,
2013-02-11 17:55:00,36.0,28.2,30.07,SW,217,1.0,2.0,73,0.00,,,0.00,VWS V14.01,2013-02-11 23:55:00,
2013-02-11 18:00:00,35.7,27.6,30.07,South,186,2.0,2.0,72,0.00,,,0.00,VWS V14.01,2013-02-12 00:00:00,
2013-02-11 18:05:00,35.5,27.7,30.07,SSW,211,0.0,3.0,73,0.00,,,0.00,VWS V14.01,2013-02-12 00:05:00,
2013-02-11 18:10:00,35.2,27.4,30.07,SE,142,1.0,1.0,73,0.00,,,0.00,VWS V14.01,2013-02-12 00:10:00,
2013-02-11 18:15:00,35.0,27.6,30.08,NNE,16,1.0,5.0,74,0.00,,,0.00,VWS V14.01,2013-02-12 00:15:00,
2013-02-11 18:20:00,34.8,27.4,30.08,SSW,208,0.0,2.0,74,0.00,,,0.00,VWS V14.01,2013-02-12 00:20:00,
2013-02-11 18:25:00,34.7,27.3,30.08,SW,223,0.0,1.0,74,0.00,,,0.00,VWS V14.01,2013-02-12 00:25:00,
2013-02-11 18:30:00,34.4,27.3,30.08,SE,144,0.0,1.0,75,0.00,,,0.00,VWS V14.01,2013-02-12 00:30:00,
2013-02-11 18:35:00,34.2,27.4,30.08,SE,144,0.0,0.0,76,0.00,,,0.00,VWS V14.01,2013-02-12 00:35:00,
2013-02-11 18:40:00,34.1,27.3,30.08,West,267,0.0,2.0,76,0.00,,,0.00,VWS V14.01,2013-02-12 00:40:00,
2013-02-11 18:45:00,33.9,27.5,30.08,SW,229,0.0,0.0,77,0.00,,,0.00,VWS V14.01,2013-02-12 00:45:00,
2013-02-11 18:50:00,33.8,27.4,30.08,SW,229,1.0,1.0,77,0.00,,,0.00,VWS V14.01,2013-02-12 00:50:00,
2013-02-11 18:55:00,33.6,27.2,30.08,North,5,0.0,0.0,77,0.00,,,0.00,VWS V14.01,2013-02-12 00:55:00,
2013-02-11 19:00:00,33.4,27.3,30.09,North,360,0.0,0.0,78,0.00,,,0.00,VWS V14.01,2013-02-12 01:00:00,
2013-02-11 19:05:00,33.2,27.1,30.09,North,360,1.0,1.0,78,0.00,,,0.00,VWS V14.01,2013-02-12 01:05:00,
2013-02-11 19:10:00,33.1,27.0,30.09,NNE,28,0.0,0.0,78,0.00,,,0.00,VWS V14.01,2013-02-12 01:10:00,
2013-02-11 19:15:00,32.9,27.1,30.09,ENE,76,0.0,0.0,79,0.00,,,0.00,VWS V14.01,2013-02-12 01:15:00,
2013-02-11 19:20:00,32.8,27.0,30.09,NNE,29,0.0,0.0,79,0.00,,,0.00,VWS V14.01,2013-02-12 01:20:00,
2013-02-11 19:25:00,32.7,26.9,30.09,NNE,29,0.0,0.0,79,0.00,,,0.00,VWS V14.01,2013-02-12 01:25:00,
2013-02-11 19:30:00,32.6,26.8,30.10,SSE,161,0.0,0.0,79,0.00,,,0.00,VWS V14.01,2013-02-12 01:30:00,
2013-02-11 19:35:00,32.5,26.7,30.10,SSE,161,0.0,1.0,79,0.00,,,0.00,VWS V14.01,2013-02-12 01:35:00,
2013-02-11 19:40:00,32.3,26.8,30.09,SSE,161,0.0,1.0,80,0.00,,,0.00,VWS V14.01,2013-02-12 01:40:00,
2013-02-11 19:45:00,32.2,26.7,30.10,NE,55,0.0,2.0,80,0.00,,,0.00,VWS V14.01,2013-02-12 01:45:00,
2013-02-11 19:50:00,32.2,26.7,30.10,NNE,31,0.0,2.0,80,0.00,,,0.00,VWS V14.01,2013-02-12 01:50:00,
2013-02-11 19:55:00,32.1,26.6,30.10,NE,41,0.0,0.0,80,0.00,,,0.00,VWS V14.01,2013-02-12 01:55:00,
2013-02-11 20:00:00,32.0,26.5,30.10,SW,217,0.0,0.0,80,0.00,,,0.00,VWS V14.01,2013-02-12 02:00:00,
2013-02-11 20:05:00,32.0,26.5,30.10,SW,219,0.0,0.0,80,0.00,,,0.00,VWS V14.01,2013-02-12 02:05:00,
2013-02-11 20:10:00,31.9,26.4,30.11,SW,220,1.0,2.0,80,0.00,,,0.00,VWS V14.01,2013-02-12 02:10:00,
2013-02-11 20:15:00,31.9,26.4,30.10,ENE,74,0.0,0.0,80,0.00,,,0.00,VWS V14.01,2013-02-12 02:15:00,
2013-02-11 20:20:00,31.8,26.4,30.11,ENE,74,0.0,0.0,80,0.00,,,0.00,VWS V14.01,2013-02-12 02:20:00,
2013-02-11 20:25:00,31.7,26.5,30.11,ENE,74,0.0,0.0,81,0.00,,,0.00,VWS V14.01,2013-02-12 02:25:00,
2013-02-11 20:30:00,31.5,26.4,30.11,ENE,75,0.0,0.0,81,0.00,,,0.00,VWS V14.01,2013-02-12 02:30:00,
2013-02-11 20:35:00,31.4,26.2,30.11,ENE,75,0.0,0.0,81,0.00,,,0.00,VWS V14.01,2013-02-12 02:35:00,
2013-02-11 20:40:00,31.4,26.2,30.10,South,172,0.0,0.0,81,0.00,,,0.00,VWS V14.01,2013-02-12 02:40:00,
2013-02-11 20:45:00,31.3,26.2,30.10,South,172,0.0,0.0,81,0.00,,,0.00,VWS V14.01,2013-02-12 02:45:00,
2013-02-11 20:50:00,31.2,26.4,30.10,South,172,0.0,1.0,82,0.00,,,0.00,VWS V14.01,2013-02-12 02:50:00,
2013-02-11 20:55:00,31.2,26.4,30.11,South,172,0.0,1.0,82,0.00,,,0.00,VWS V14.01,2013-02-12 02:55:00,
2013-02-11 21:00:00,31.1,26.3,30.11,South,172,0.0,0.0,82,0.00,,,0.00,VWS V14.01,2013-02-12 03:00:00,
2013-02-11 21:05:00,31.1,26.3,30.11,South,172,0.0,0.0,82,0.00,,,0.00,VWS V14.01,2013-02-12 03:05:00,
2013-02-11 21:10:00,31.0,26.2,30.11,South,172,0.0,0.0,82,0.00,,,0.00,VWS V14.01,2013-02-12 03:10:00,
2013-02-11 21:15:00,30.9,26.1,30.12,South,172,0.0,1.0,82,0.00,,,0.00,VWS V14.01,2013-02-12 03:15:00,
2013-02-11 21:20:00,30.8,26.0,30.12,South,172,0.0,0.0,82,0.00,,,0.00,VWS V14.01,2013-02-12 03:20:00,
2013-02-11 21:25:00,30.8,26.0,30.12,South,172,0.0,0.0,82,0.00,,,0.00,VWS V14.01,2013-02-12 03:25:00,
2013-02-11 21:30:00,30.8,26.0,30.12,South,172,0.0,1.0,82,0.00,,,0.00,VWS V14.01,2013-02-12 03:30:00,
2013-02-11 21:35:00,30.8,26.0,30.12,South,172,0.0,2.0,82,0.00,,,0.00,VWS V14.01,2013-02-12 03:35:00,
2013-02-11 21:40:00,30.8,26.0,30.12,South,172,0.0,1.0,82,0.00,,,0.00,VWS V14.01,2013-02-12 03:40:00,
2013-02-11 21:45:00,30.7,25.9,30.13,South,172,0.0,1.0,82,0.00,,,0.00,VWS V14.01,2013-02-12 03:45:00,
2013-02-11 21:50:00,30.6,26.1,30.12,North,5,0.0,0.0,83,0.00,,,0.00,VWS V14.01,2013-02-12 03:50:00,
2013-02-11 21:55:00,30.6,26.1,30.12,NNW,338,0.0,0.0,83,0.00,,,0.00,VWS V14.01,2013-02-12 03:55:00,
2013-02-11 22:00:00,30.5,26.0,30.12,NNW,335,0.0,0.0,83,0.00,,,0.00,VWS V14.01,2013-02-12 04:00:00,
2013-02-11 22:05:00,30.5,26.0,30.13,NNW,335,0.0,0.0,83,0.00,,,0.00,VWS V14.01,2013-02-12 04:05:00,
2013-02-11 22:10:00,30.4,25.9,30.13,SSW,192,1.0,2.0,83,0.00,,,0.00,VWS V14.01,2013-02-12 04:10:00,
2013-02-11 22:15:00,30.5,26.0,30.13,SSW,192,0.0,1.0,83,0.00,,,0.00,VWS V14.01,2013-02-12 04:15:00,
2013-02-11 22:20:00,30.6,25.8,30.13,SSW,192,0.0,0.0,82,0.00,,,0.00,VWS V14.01,2013-02-12 04:20:00,
2013-02-11 22:25:00,30.6,25.8,30.13,SSW,192,1.0,1.0,82,0.00,,,0.00,VWS V14.01,2013-02-12 04:25:00,
2013-02-11 22:30:00,30.6,25.8,30.13,SSW,192,0.0,0.0,82,0.00,,,0.00,VWS V14.01,2013-02-12 04:30:00,
2013-02-11 22:35:00,30.6,25.8,30.13,SSW,192,0.0,0.0,82,0.00,,,0.00,VWS V14.01,2013-02-12 04:35:00,
2013-02-11 22:40:00,30.6,25.8,30.14,SSW,192,1.0,1.0,82,0.00,,,0.00,VWS V14.01,2013-02-12 04:40:00,
2013-02-11 22:45:00,30.6,25.8,30.14,SSW,192,1.0,1.0,82,0.00,,,0.00,VWS V14.01,2013-02-12 04:45:00,
2013-02-11 22:50:00,30.5,25.7,30.14,SW,215,0.0,0.0,82,0.00,,,0.00,VWS V14.01,2013-02-12 04:50:00,
2013-02-11 22:55:00,30.5,25.7,30.14,SW,223,1.0,1.0,82,0.00,,,0.00,VWS V14.01,2013-02-12 04:55:00,
2013-02-11 23:00:00,30.5,25.7,30.14,SW,223,0.0,0.0,82,0.00,,,0.00,VWS V14.01,2013-02-12 05:00:00,
2013-02-11 23:05:00,30.5,25.7,30.14,SW,223,0.0,1.0,82,0.00,,,0.00,VWS V14.01,2013-02-12 05:05:00,
2013-02-11 23:10:00,30.4,25.6,30.15,SW,223,0.0,0.0,82,0.00,,,0.00,VWS V14.01,2013-02-12 05:10:00,
2013-02-11 23:15:00,30.3,25.5,30.14,SW,223,0.0,0.0,82,0.00,,,0.00,VWS V14.01,2013-02-12 05:15:00,
2013-02-11 23:20:00,30.1,25.3,30.14,SW,223,0.0,0.0,82,0.00,,,0.00,VWS V14.01,2013-02-12 05:20:00,
2013-02-11 23:25:00,29.9,25.4,30.15,SW,223,0.0,0.0,83,0.00,,,0.00,VWS V14.01,2013-02-12 05:25:00,
2013-02-11 23:30:00,29.8,25.3,30.15,SW,223,0.0,0.0,83,0.00,,,0.00,VWS V14.01,2013-02-12 05:30:00,
2013-02-11 23:35:00,29.6,25.4,30.14,SW,223,0.0,0.0,84,0.00,,,0.00,VWS V14.01,2013-02-12 05:35:00,
2013-02-11 23:40:00,29.5,25.3,30.14,SW,223,0.0,0.0,84,0.00,,,0.00,VWS V14.01,2013-02-12 05:40:00,
2013-02-11 23:45:00,29.4,25.2,30.15,SW,223,0.0,0.0,84,0.00,,,0.00,VWS V14.01,2013-02-12 05:45:00,
2013-02-11 23:50:00,29.3,25.4,30.16,SW,223,0.0,0.0,85,0.00,,,0.00,VWS V14.01,2013-02-12 05:50:00,
2013-02-11 23:55:00,29.1,25.2,30.15,SW,223,0.0,0.0,85,0.00,,,0.00,VWS V14.01,2013-02-12 05:55:00,